Miscellaneous Local Product
Issued by NWS North Platte, NE

Home | Current Version | Previous Version | Text Only | Print | Product List | Glossary On
Versions: 1 2 3 4 5 6 7 8 9 10 11 12 13 14 15 16 17 18 19 20 21 22 23 24 25 26 27 28 29 30 31 32 33 34 35 36 37 38 39 40 41 42 43 44 45 46 47 48 49 50
000
AXUS43 KLBF 250110
MISLBF


WESTERN AND NORTH CENTRAL NEBRASKA HOURLY WEATHER ROUNDUP
NATIONAL WEATHER SERVICE NORTH PLATTE NE
700 PM CST WED DEC 24 2014

***STATIONS NOT REPORTING VARIABLES SUCH AS SKY/WEATHER OR
PRESSURE ARE PROVIDED BY THE NEBRASKA DEPARTMENT OF
ROADS...RAWS...AND APRS NETWORKS...AND ARE NOT UNDER
NATIONAL WEATHER SERVICE QUALITY CONTROL***

...OBSERVATIONS IN AND NEAR THE EASTERN PANHANDLE OF NEBRASKA...

CITY           SKY/WX    TMP DP  RH WIND       PRES   REMARKS
PINE RIDGE     CLOUDY    31  23  72 SW7       29.50F WCI  24
CHADRON        CLOUDY    31  23  72 CALM      29.51F
ALLIANCE       MOCLDY    33  25  72 SW12      29.53F WCI  24
SIDNEY         PTCLDY    29  19  66 SW10      29.58F WCI  20
WHITECLAY        N/A     29  21  73 S5          N/A  WCI  24
CRESCENT LAKE    N/A     34  23  64 SW6         N/A  WCI  29
LISCO            N/A     35  22  58 E3          N/A
BIG SPRINGS      N/A     27  22  82 SW5         N/A  WCI  22
$$

...OBSERVATIONS IN NORTH CENTRAL NEBRASKA...

CITY           SKY/WX    TMP DP  RH WIND       PRES   REMARKS
VALENTINE      PTCLDY    27  22  81 S6        29.53F WCI  20
THEDFORD       CLOUDY    34  27  77 S9        29.57F WCI  26
AINSWORTH      PTCLDY    32  24  73 SW10      29.55S WCI  24
O`NEILL        PTCLDY    31  25  79 S8        29.59F WCI  23
ORD            PTCLDY    31  24  75 S8        29.61F WCI  23
BROKEN BOW     PTCLDY    33  24  69 S5        29.61F WCI  29
BROWNLEE         N/A     33  24  71 S7          N/A  WCI  26
BREWSTER         N/A     35  26  68 SW10        N/A  WCI  28
ROSE             N/A     34  29  82 E6          N/A  WCI  29
COMSTOCK         N/A     36  25  65 S9          N/A  WCI  29
$$

...OBSERVATIONS IN SOUTHWEST NEBRASKA AND FAR NORTHEAST COLORADO...

CITY           SKY/WX    TMP DP  RH WIND       PRES   REMARKS
WRAY           FAIR      37  26  65 SW8       29.63S WCI  30
HOLYOKE        FAIR      36  28  75 SW6       29.61F WCI  31
IMPERIAL       CLOUDY    36  25  64 SW9       29.62F WCI  29
OGALLALA       CLOUDY    30  25  80 W6        29.60F WCI  24
NORTH PLATTE   MOCLDY    31  22  69 CALM      29.61F
MCCOOK         PTCLDY    34  23  64 SW8       29.65F WCI  27
LEXINGTON      PTCLDY    34  25  70 S9        29.63F WCI  26
PAXTON           N/A     35  27  74 CALM        N/A
GOTHENBURG       N/A     36  22  56 CALM        N/A
CALLAWAY         N/A     32  26  77 S9          N/A  WCI  24
$$

...NORTH PLATTE AREA...

CITY           SKY/WX    TMP DP  RH WIND       PRES   REMARKS
AIRPORT        MOCLDY    31  22  69 CALM      29.61F
$$

...SOME WEATHER OBSERVATIONS FROM AROUND THE REGION...

CITY           SKY/WX    TMP DP  RH WIND       PRES   REMARKS
DENVER         CLOUDY    37  23  56 S8        29.58F WCI  31
LARAMIE        CLOUDY    29  16  58 W25G35    29.61F WCI  14
CHEYENNE       CLOUDY    40  16  37 W16       29.55F WCI  31
SCOTTSBLUFF    MOCLDY    41  27  57 W13       29.54F
RAPID CITY     CLOUDY    33  25  72 CALM      29.45F
PIERRE         MOCLDY    24  19  81 SE7       29.50F WCI  16
WINNER         FAIR      35  23  61 SW16      29.51F WCI  25
SIOUX FALLS    CLOUDY    26  25  96 SW9       29.64F FOG     WCI  17
OMAHA          CLOUDY    31  26  82 S8        29.77F WCI  23
GRAND ISLAND   MOCLDY    34  24  67 S12       29.68F WCI  25
KANSAS CITY    CLOUDY    34  29  82 W9        29.83S WCI  27
WICHITA        PTCLDY    34  24  67 SW6       29.87R WCI  29
HAYS           PTCLDY    32  14  47 S6        29.75F WCI  26
LIBERAL        CLEAR     34  12  40 S9        29.80F WCI  26
GOODLAND       PTCLDY    37  20  50 SW15      29.66F WCI  28
$$



USA.gov is the U.S. government's official web portal to all federal, state and local government web resources and services.